Estación municipal de Roda de Ter (Osona, Plana de Vic)

Consulta los datos en tiempo real de la estación municipal de Roda de Ter





Hora UTC 04:15
Temperatura 12.1 ºC
Humedad 100.0 %
Pluja 0.0 mm
Velocidad viento 3.0 km/h
Dirección viento NNW

Webcam

Datos diarios 2026-05-04



Hora UTC (invierno +1h; verano +2h)
Temperatura (ºC) Humedad (%) Velocidad viento (km/h) Precipitación (mm)
Hora UTC Aire Humedad Vel. Dir. Vel. Max Dir. Intent. máx 5 min.
00:05 12.5 100.0 6.6 WSW 6.6 WSW 0.0
00:10 12.5 100.0 5.1 WSW 8.1 WSW 0.0
00:15 12.6 100.0 3.3 W 4.6 W 0.0
00:20 12.6 100.0 4.2 W 5.6 W 0.0
00:25 12.6 99.8 5.1 W 7.4 WSW 0.0
00:30 12.6 99.7 4.7 W 6.7 W 0.0
00:35 12.6 99.2 5.3 WSW 8.1 WSW 0.0
00:40 12.6 99.2 4.1 WSW 5.6 WSW 0.0
00:45 12.7 99.5 1.9 WSW 3.5 WSW 0.0
00:50 12.7 99.8 2.9 WSW 5.6 WSW 0.0
00:55 12.7 99.8 2.1 WSW 3.9 WSW 0.0
01:00 12.7 99.8 0.8 WSW 2.5 WSW 0.0
01:05 12.8 99.9 0.3 WSW 2.1 WSW 0.0
01:10 12.7 99.7 0.8 WSW 2.1 WSW 0.0
01:15 12.7 99.3 0.1 WSW 1.4 WSW 0.0
01:20 12.8 99.2 0.0 WSW 1.4 WSW 0.0
01:25 12.8 99.1 0.0 WSW 1.1 WSW 0.0
01:30 12.8 99.2 1.4 WSW 3.5 WSW 0.0
01:35 12.8 99.1 1.0 WSW 2.8 WSW 0.0
01:40 12.8 98.8 0.0 WSW 1.4 WSW 0.0
01:45 12.8 98.8 0.0 NNE 0.0 WSW 0.0
01:50 12.8 99.0 0.5 W 2.8 W 0.0
01:55 12.7 99.1 0.3 N 2.1 N 0.0
02:00 12.4 99.6 0.1 N 1.8 N 0.0
02:05 12.3 100.0 0.0 NNE 0.0 N 0.0
02:10 12.4 100.0 0.3 N 1.4 N 0.0
02:15 12.4 100.0 0.0 N 1.1 N 0.0
02:20 12.4 100.0 0.1 N 1.4 N 0.0
02:25 12.3 100.0 0.0 NNE 0.0 N 0.0
02:30 12.2 100.0 0.6 N 1.8 N 0.0
02:35 12.2 100.0 0.0 NNE 0.0 N 0.0
02:40 12.2 100.0 0.0 NNE 0.0 N 0.0
02:45 12.2 100.0 0.0 NNE 0.0 N 0.0
02:50 12.1 100.0 0.0 NNE 0.0 N 0.0
02:55 12.0 100.0 0.0 NNE 0.0 N 0.0
03:00 11.8 100.0 0.1 N 1.4 N 0.0
03:05 11.8 100.0 0.6 N 1.8 N 0.0
03:10 11.5 100.0 0.0 NNE 0.0 N 0.0
03:15 11.5 100.0 0.0 NNE 0.0 N 0.0
03:20 11.6 100.0 0.0 N 1.1 N 0.0
03:25 11.8 100.0 0.0 NNE 0.0 N 0.0
03:30 11.9 100.0 2.4 N 3.5 N 0.0
03:35 12.0 100.0 5.2 ESE 6.7 SE 0.0
03:40 12.1 100.0 4.5 SE 6.0 SE 0.0
03:45 12.2 100.0 2.5 SE 4.6 SE 0.0
03:50 12.2 100.0 0.9 SE 3.5 SE 0.0
03:55 12.2 100.0 0.0 NNE 0.0 SE 0.0
04:00 12.1 100.0 3.2 NNE 6.7 NNE 0.0
04:05 12.0 100.0 3.4 NNW 5.6 N 0.0
04:10 12.0 100.0 3.3 NNW 4.6 NNW 0.0
04:15 12.1 100.0 3.0 NNW 3.9 NNW 0.0
Máxima 12.8 100.0 6.6 WSW 8.1 WSW 0.0
Mínima 11.5 98.8
Total 0.0